Location: Limerick
(52.6650°N, 8.6230°W)
Time: 21:50:04
(UTC+00:00)

ISS - Pass Details

Date: 12 November 2019
Orbit: 412 x 421 km, 51.6° (Epoch: 15 November)

Event Time Altitude Azimuth Distance (km) Brightness Sun altitude
Exits shadow 05:34:24 10° 183° (S) 1,474 -1.0 -20.6°
Drops below altitude 10° 05:34:31 10° 181° (S) 1,500 -0.9 -20.6°
Sets 05:37:14 0° 157° (SSE) 2,358 0.4 -20.1°
